This is the latest recevied weather packets stored in our database for station/object HB9KBJ-4. If no packets are shown the sender has not sent any weather packets the latest 10 day(s).
| Time | Temp. | Humidity | Pressure | Rain* | Wind** | Luminosity | Snow |
|---|---|---|---|---|---|---|---|
| 1777817920 | 20° C | 46% | - | 0 mm | - | - | - |
| 1777817620 | 20° C | 45% | - | 0 mm | - | - | - |
| 1777817020 | 20° C | 48% | - | 0 mm | - | - | - |
| 1777816719 | 20° C | 48% | - | 0 mm | - | - | - |
| 1777816419 | 20° C | 47% | - | 0 mm | - | - | - |
| 1777816119 | 20° C | 46% | - | 0 mm | - | - | - |
| 1777815818 | 20° C | 46% | - | 0 mm | - | - | - |
| 1777815518 | 20° C | 46% | - | 0 mm | - | - | - |
| 1777815218 | 20° C | 45% | - | 0 mm | - | - | - |
| 1777814917 | 20.56° C | 44% | - | 0 mm | - | - | - |
| 1777814617 | 21.11° C | 44% | - | 0 mm | - | - | - |
| 1777814317 | 21.11° C | 43% | - | 0 mm | - | - | - |
| 1777814017 | 21.67° C | 42% | - | 0 mm | - | - | - |
| 1777813716 | 21.67° C | 41% | - | 0 mm | - | - | - |
| 1777813116 | 21.67° C | 39% | - | 0 mm | - | - | - |
| 1777812816 | 21.67° C | 37% | - | 0 mm | - | - | - |
| 1777812515 | 22.22° C | 39% | - | 0 mm | - | - | - |
| 1777811915 | 22.22° C | 37% | - | 0 mm | - | - | - |
| 1777811314 | 22.22° C | 39% | - | 0 mm | - | - | - |
| 1777810713 | 21.67° C | 39% | - | 0 mm | - | - | - |
| 1777810413 | 21.67° C | 40% | - | 0 mm | - | - | - |
| 1777810113 | 21.67° C | 39% | - | 0 mm | - | - | - |
| 1777809813 | 21.67° C | 39% | - | 0 mm | - | - | - |
| 1777809512 | 21.67° C | 38% | - | 0 mm | - | - | - |
| 1777808912 | 21.67° C | 36% | - | 0 mm | - | - | - |
* Rain since midnight (hover to see other rain measurements)
** Current wind speed in m/s (hover to see current wind gust speed)